TimeCET,TemperatureF,Dew PointF,Humidity,Sea Level PressureIn,VisibilityMPH,Wind Direction,Wind SpeedMPH,Gust SpeedMPH,PrecipitationIn,Events,Conditions,WindDirDegrees,DateUTC
12:00 AM,46.4,30.2,53,30.06,6.2,WNW,2.3,-,N/A,,Scattered Clouds,300,2013-02-07 23:00:00
12:30 AM,46.4,30.2,53,30.06,6.2,WNW,4.6,-,N/A,,Scattered Clouds,300,2013-02-07 23:30:00
1:00 AM,44,28,40,30.08,9,WNW,4.6,,,,Scattered Clouds,300,2013-02-08 00:00:00
1:00 AM,46.4,32.0,57,30.06,6.2,WNW,3.5,-,N/A,,Partly Cloudy,300,2013-02-08 00:00:00
1:30 AM,46.4,33.8,62,30.06,6.2,Variable,2.3,-,N/A,,Partly Cloudy,0,2013-02-08 00:30:00
2:00 AM,46.4,33.8,62,30.04,6.2,Variable,2.3,-,N/A,,Partly Cloudy,0,2013-02-08 01:00:00
2:30 AM,42.8,33.8,70,30.04,6.2,Calm,Calm,-,N/A,,Partly Cloudy,0,2013-02-08 01:30:00
3:00 AM,41.0,33.8,76,30.04,6.2,Calm,Calm,-,N/A,,Partly Cloudy,0,2013-02-08 02:00:00
3:30 AM,42.8,35.6,76,30.04,6.2,Calm,Calm,-,N/A,,Partly Cloudy,0,2013-02-08 02:30:00
4:00 AM,42.8,37.4,81,30.01,6.2,West,4.6,-,N/A,,Partly Cloudy,280,2013-02-08 03:00:00
4:30 AM,44.6,35.6,71,30.01,6.2,NW,3.5,-,N/A,,Partly Cloudy,320,2013-02-08 03:30:00
5:00 AM,37.4,32.0,81,29.98,6.2,Calm,Calm,-,N/A,,Partly Cloudy,0,2013-02-08 04:00:00
5:30 AM,37.4,33.8,87,29.98,6.2,ENE,3.5,-,N/A,,Partly Cloudy,60,2013-02-08 04:30:00
6:00 AM,37.4,33.8,87,29.98,6.2,ESE,1.2,-,N/A,,Partly Cloudy,110,2013-02-08 05:00:00
6:30 AM,35.6,32.0,87,29.98,6.2,Calm,Calm,-,N/A,,Partly Cloudy,0,2013-02-08 05:30:00
7:00 AM,35,30,77,29.97,9,NE,1.2,,,,Scattered Clouds,50,2013-02-08 06:00:00
7:00 AM,35.6,33.8,93,29.95,6.2,Calm,Calm,-,N/A,,Partly Cloudy,0,2013-02-08 06:00:00
7:30 AM,41.0,39.2,93,29.98,6.2,North,3.5,-,N/A,,Scattered Clouds,350,2013-02-08 06:30:00
8:00 AM,42.8,39.2,87,29.95,6.2,SSE,3.5,-,N/A,,Mostly Cloudy,160,2013-02-08 07:00:00
8:30 AM,41.0,37.4,87,29.95,6.2,Calm,Calm,-,N/A,,Mostly Cloudy,0,2013-02-08 07:30:00
9:00 AM,42.8,39.2,87,29.95,6.2,SE,2.3,-,N/A,,Mostly Cloudy,130,2013-02-08 08:00:00
9:30 AM,50.0,41.0,71,29.95,6.2,Calm,Calm,-,N/A,,Scattered Clouds,0,2013-02-08 08:30:00
10:00 AM,50.0,41.0,71,29.95,6.2,NW,12.7,-,N/A,,Scattered Clouds,310,2013-02-08 09:00:00
10:30 AM,51.8,41.0,67,29.95,6.2,WNW,11.5,-,N/A,,Scattered Clouds,290,2013-02-08 09:30:00
11:00 AM,51.8,41.0,67,29.95,6.2,NW,13.8,-,N/A,,Mostly Cloudy,320,2013-02-08 10:00:00
11:30 AM,51.8,39.2,62,29.95,6.2,NW,13.8,-,N/A,,Mostly Cloudy,310,2013-02-08 10:30:00
12:00 PM,51.8,39.2,62,29.95,6.2,NW,10.4,-,N/A,,Mostly Cloudy,310,2013-02-08 11:00:00
12:30 PM,51.8,37.4,58,29.95,6.2,NNW,12.7,-,N/A,,Mostly Cloudy,330,2013-02-08 11:30:00
1:00 PM,52,36,42,29.93,19,NW,11.5,,,,Partly Cloudy,310,2013-02-08 12:00:00
1:00 PM,53.6,39.2,58,29.92,6.2,NNW,15.0,-,N/A,,Mostly Cloudy,340,2013-02-08 12:00:00
1:30 PM,53.6,41.0,62,29.92,6.2,NNW,13.8,-,N/A,,Mostly Cloudy,330,2013-02-08 12:30:00
2:00 PM,53.6,39.2,58,29.89,6.2,NW,12.7,-,N/A,,Mostly Cloudy,320,2013-02-08 13:00:00
2:30 PM,53.6,39.2,58,29.89,6.2,NW,8.1,-,N/A,,Scattered Clouds,310,2013-02-08 13:30:00
3:00 PM,53.6,39.2,58,29.89,6.2,NW,10.4,-,N/A,,Mostly Cloudy,320,2013-02-08 14:00:00
3:30 PM,51.8,39.2,62,29.89,6.2,WNW,11.5,-,N/A,,Mostly Cloudy,290,2013-02-08 14:30:00
4:00 PM,51.8,39.2,62,29.89,6.2,NW,11.5,-,N/A,,Mostly Cloudy,310,2013-02-08 15:00:00
4:30 PM,51.8,39.2,62,29.89,6.2,NW,9.2,-,N/A,,Mostly Cloudy,320,2013-02-08 15:30:00
5:00 PM,51.8,39.2,62,29.89,6.2,NW,8.1,-,N/A,,Mostly Cloudy,320,2013-02-08 16:00:00
5:30 PM,50.0,39.2,66,29.89,6.2,WNW,4.6,-,N/A,,Scattered Clouds,300,2013-02-08 16:30:00
6:00 PM,50.0,39.2,66,29.89,6.2,NNW,5.8,-,N/A,,Scattered Clouds,330,2013-02-08 17:00:00
6:30 PM,48.2,39.2,71,29.89,6.2,Calm,Calm,-,N/A,,Scattered Clouds,0,2013-02-08 17:30:00
7:00 PM,46,35,56,29.91,9,NW,2.3,,,,Partly Cloudy,320,2013-02-08 18:00:00
7:00 PM,46.4,39.2,76,29.89,6.2,Calm,Calm,-,N/A,,Scattered Clouds,0,2013-02-08 18:00:00
7:30 PM,46.4,39.2,76,29.92,6.2,WNW,2.3,-,N/A,,Scattered Clouds,300,2013-02-08 18:30:00
8:00 PM,46.4,39.2,76,29.92,6.2,Calm,Calm,-,N/A,,Partly Cloudy,0,2013-02-08 19:00:00
8:30 PM,44.6,37.4,76,29.92,6.2,NE,4.6,-,N/A,,Partly Cloudy,50,2013-02-08 19:30:00
9:00 PM,42.8,35.6,76,29.95,6.2,Variable,1.2,-,N/A,,Partly Cloudy,0,2013-02-08 20:00:00
9:30 PM,41.0,35.6,81,29.95,6.2,Calm,Calm,-,N/A,,Partly Cloudy,0,2013-02-08 20:30:00
10:00 PM,41.0,35.6,81,29.95,6.2,Variable,1.2,-,N/A,,Partly Cloudy,0,2013-02-08 21:00:00
10:30 PM,41.0,35.6,81,29.95,6.2,Variable,2.3,-,N/A,,Partly Cloudy,0,2013-02-08 21:30:00
11:00 PM,41.0,37.4,87,29.98,6.2,ENE,5.8,-,N/A,,Partly Cloudy,60,2013-02-08 22:00:00
11:30 PM,41.0,37.4,87,29.98,6.2,Calm,Calm,-,N/A,,Partly Cloudy,0,2013-02-08 22:30:00